Date,TemperatureHighF,TemperatureAvgF,TemperatureLowF,DewpointHighF,DewpointAvgF,DewpointLowF,HumidityHigh,HumidityAvg,HumidityLow,PressureMaxIn,PressureMinIn,WindSpeedMaxMPH,WindSpeedAvgMPH,GustSpeedMaxMPH,PrecipitationSumIn
2013-2-1,47,43,39,42,39,36,93,87,77,29.89,29.44,12,4,18,0.20
2013-2-2,43,39,33,38,32,26,91,75,63,30.23,29.54,15,8,23,0.02
2013-2-3,49,40,31,46,37,26,94,86,74,30.23,29.89,12,4,23,0.00
2013-2-4,51,48,43,47,40,35,90,75,56,29.92,29.71,18,10,29,0.00
2013-2-5,44,40,36,39,33,28,91,76,56,29.71,29.31,21,10,47,0.16
2013-2-6,43,40,36,39,34,28,90,78,66,30.04,29.34,18,10,30,0.06
2013-2-7,43,38,34,36,31,27,91,78,62,30.09,29.97,11,6,17,0.02
2013-2-8,44,38,32,36,33,30,93,83,64,30.12,30.00,10,5,20,0.02
2013-2-9,39,37,35,36,34,31,93,89,81,30.14,29.85,9,2,20,0.02
2013-2-10,41,38,34,39,36,31,95,94,92,29.85,29.25,11,6,22,0.45
2013-2-11,35,34,33,33,32,31,95,94,93,29.75,29.26,8,5,14,0.39
2013-2-12,36,35,34,33,30,28,93,83,76,30.11,29.75,6,3,14,0.01
2013-2-13,38,35,34,36,30,25,93,80,66,30.18,29.99,10,5,20,0.01
2013-2-14,38,38,38,36,36,36,93,93,93,29.99,29.99,8,8,15,0.00
2013-2-15,52,46,41,46,37,35,92,72,61,30.18,30.09,9,3,14,0.00
2013-2-16,52,44,37,40,37,34,92,78,53,30.22,30.17,5,1,8,0.00
2013-2-17,51,40,31,41,35,29,96,84,50,30.19,30.08,10,3,20,0.01
2013-2-18,49,40,33,38,35,30,94,83,59,30.12,30.07,11,4,15,0.01
2013-2-19,53,38,28,39,32,26,95,81,52,30.11,30.03,2,0,6,0.00
2013-2-20,42,38,35,38,32,27,95,81,66,30.24,30.08,16,8,26,0.02
2013-2-21,36,35,33,28,24,22,72,65,58,30.24,30.15,14,9,24,0.01
2013-2-22,36,34,33,27,24,21,74,66,60,30.15,30.08,13,8,23,0.00
2013-2-23,36,35,33,28,25,23,83,68,59,30.19,30.08,9,5,20,0.00
2013-2-24,37,34,33,30,28,27,85,77,71,30.26,30.17,10,6,20,0.00
2013-2-25,40,38,35,36,33,29,88,84,77,30.36,30.24,12,7,22,0.00
2013-2-26,41,39,37,39,37,34,94,91,88,30.54,30.35,12,6,22,0.02
2013-2-27,45,39,36,37,34,33,93,84,69,30.55,30.46,10,6,21,0.01
2013-2-28,47,40,35,39,35,32,89,82,70,30.47,30.31,12,5,20,0.00